Voltar ao catálogo

ONEWEB-0170

AtivoComunicaçõesPO
NORAD 48067·PAYLOAD·🇬🇧 United Kingdom

Lançado Mar 25, 2021 de Vostochny Cosmodrome

Loading…

Próximas Passagens (próximas 24 horas)

TLE

AtualizadoSource: CelesTrak SupGP

Época: Sep 15, 2026, 03:09 UTC

1 48067C 21025AB  26258.13140463  .00000396  00000+0  10865-2 0  2587
2 48067  87.8921 302.3306 0002281  85.5797 315.0968 13.13468174    14

Acompanhe ONEWEB-0170 em tempo real com AllMySat

Download on the App Store